Temp
5 5 5 5 6 6 6 6 6 6 6 6 7 7 9 7 8 9 9 9 9 9 9 9 9 9 9 10 9 10 9 9 8 8 8 8 7 7 6 6 5 5 4 3
4 4 5 5 5 5 5 5 5 5 6 6 6 6 8 8 8 8 9 9 9 9 9 9 9 9 10 10 10 10 10 9 8 8 8 7 7 7 6 5 5 4 5 4
5 4 5 5 5 5 4 4 4 5 5 5 5 6 7 8 8 8 9 9 9 9 9 10 10 10 10 10 10 10 9 9 8 8 7 7 7 7 6 6 5 5 3 3
4 4 4 5 5 4 4 4 5 4 4 4 4 3 6 8 8 8 9 9 9 9 9 10 9 9 10 10 10 10 9 9 8 8 7 7 6 6 6 5 5 4 3 3
3 3 4 4 5 4 4 4 4 4 4 3 3 3 6 6 8 8 9 9 9 9 9 10 10 10 10 10 10 9 9 9 8 8 7 6 6 5 5 5 4 4 1 2
3 3 3 4 4 4 4 4 3 3 3 1 3 4 5 7 8 8 8 9 8 8 8 9 9 9 9 9 9 9 9 8 8 7 6 6 5 5 5 5 5 5 2 2
1 2 3 3 3 3 3 3 1 0 -1 -1 3 3 6 7 7 7 7 8 8 8 8 8 8 8 8 8 8 8 8 8 8 7 6 6 5 5 5 5 5 4 3 2
1 1 2 2 3 4 3 3 3 -2 -3 -1 2 3 6 6 6 7 7 8 8 7 7 7 7 8 7 7 7 7 7 7 7 6 6 6 6 5 5 5 5 4 3 3
1 1 3 2 2 3 2 2 4 3 1 -1 3 4 6 5 6 6 7 7 7 8 8 8 7 7 6 6 6 6 6 6 6 6 6 5 5 5 5 5 4 3 3 3
2 2 2 2 2 2 3 3 1 2 -4 -4 1 2 4 5 5 5 6 6 6 7 7 6 7 6 6 6 6 6 6 6 5 5 5 5 5 4 4 3 3 3 3 3
1 2 1 1 1 2 2 1 2 2 3 -2 -4 3 5 5 5 5 5 5 6 6 6 7 7 6 6 6 6 6 6 5 5 5 4 4 4 3 3 2 2 2 2 2
1 1 1 1 1 2 2 3 2 2 0 1 2 3 4 4 4 5 5 5 5 5 6 6 6 6 5 5 5 5 5 5 5 4 3 3 2 2 2 2 2 2 2 2
1 -0 -0 -1 -0 1 1 1 1 2 2 2 -1 3 3 3 3 3 4 4 4 4 5 5 4 4 4 4 4 4 4 4 3 2 2 1 1 1 1 1 1 1 2 2
-0 -1 -1 -1 0 0 0 1 1 1 1 2 2 2 2 2 2 2 3 3 4 4 4 4 4 4 3 3 3 3 3 3 2 1 1 1 1 1 1 1 1 1 1 1
-2 -2 -2 -2 -1 -0 0 1 1 1 2 0 2 2 2 2 2 2 2 2 3 3 3 3 3 3 2 1 1 1 1 1 1 1 0 0 0 -0 -0 0 0 0 0 0
-2 -2 -2 -2 -1 -1 -0 -0 -1 -0 0 1 1 2 1 1 1 1 1 1 1 1 1 1 2 1 1 0 0 0 0 0 -0 -0 0 -1 -1 -1 -1 -2 -1 0 -0 0
-3 -3 -2 -3 -2 -2 -3 -1 -1 -0 -0 -0 -0 2 0 0 0 1 1 1 0 0 0 0 0 0 0 -0 -0 -1 -1 -1 -2 -2 -2 -2 -1 -1 -1 -1 -1 -1 -1 -1
-3 -3 -3 -3 -3 -3 -0 -0 0 0 1 0 0 0 -0 -1 -1 -1 -0 -1 -1 -1 -1 -1 -1 -1 -2 -2 -2 -2 -2 -2 -2 -2 -2 -2 -2 -2 -2 -2 -2 -2 -2 -2
-4 -4 -3 -3 -4 -1 -1 -1 -0 0 2 2 2 0 -1 -1 -1 -1 -1 -1 -2 -2 -2 -2 -2 -2 -2 -3 -2 -2 -2 -2 -2 -3 -3 -2 -2 -3 -3 -3 -3 -3 -3 -3
-5 -4 -3 -5 -4 -6 -1 -1 -1 -1 -0 1 1 1 -0 0 -0 0 -0 -1 -2 -2 -3 -3 -3 -3 -3 -3 -3 -3 -3 -3 -3 -3 -3 -3 -4 -4 -4 -4 -4 -4 -4 -4
-5 -4 -4 -4 -4 -3 -2 -2 -2 -2 0 0 1 1 0 1 1 -1 -2 -2 -2 -2 -3 -3 -3 -3 -3 -3 -4 -4 -4 -4 -4 -4 -4 -3 -3 -3 -3 -4 -4 -4 -4 -4
-4 -5 -5 -5 -5 -4 -3 -3 -2 -1 -1 -1 -1 -0 -0 -0 -1 -2 -3 -4 -4 -4 -4 -4 -4 -4 -4 -4 -4 -4 -4 -4 -4 -4 -4 -4 -4 -4 -4 -4 -4 -4 -4 -5
-5 -4 -4 -5 -4 -4 -3 -3 -3 -2 -2 -2 -2 -2 -2 -1 -2 -3 -4 -4 -4 -4 -5 -5 -5 -5 -5 -5 -5 -5 -5 -5 -5 -5 -5 -5 -5 -5 -5 -5 -5 -5 -5 -5
-6 -5 -5 -4 -4 -4 -4 -3 -4 -4 -4 -3 -3 -4 -3 -3 -4 -5 -5 -5 -5 -6 -6 -6 -6 -6 -6 -6 -5 -5 -5 -5 -5 -5 -5 -5 -5 -6 -6 -6 -6 -6 -7 -7
-6 -5 -5 -5 -5 -5 -5 -5 -5 -5 -5 -5 -4 -4 -4 -4 -5 -5 -6 -6 -6 -6 -6 -6 -7 -7 -6 -6 -6 -6 -6 -6 -6 -6 -6 -7 -7 -7 -7 -8 -8 -8 -8 -8
-7 -6 -6 -6 -5 -5 -5 -5 -5 -5 -5 -5 -5 -6 -6 -6 -6 -6 -6 -7 -7 -7 -7 -7 -7 -7 -7 -7 -7 -6 -7 -7 -7 -8 -8 -8 -8 -9 -9 -9 -9 -9 -9 -9
Height
3116 3118 3115 3122 3127 3132 3132 3135 3136 3139 3141 3139 3138 3139 3141 3142 3140 3142 3144 3146 3147 3150 3153 3154 3154 3155 3155 3156 3157 3158 3159 3161 3161 3161 3161 3162 3165 3165 3165 3166 3167 3167 3167 3167
3113 3110 3119 3123 3125 3127 3129 3132 3133 3137 3137 3135 3135 3132 3135 3136 3135 3137 3139 3141 3143 3145 3147 3149 3150 3150 3150 3151 3152 3152 3153 3154 3156 3156 3157 3157 3159 3159 3160 3161 3161 3161 3161 3161
3105 3110 3115 3117 3120 3122 3125 3128 3131 3135 3134 3131 3131 3125 3127 3130 3129 3132 3133 3136 3138 3140 3141 3142 3143 3143 3144 3144 3145 3147 3148 3149 3150 3151 3151 3152 3152 3153 3154 3155 3155 3155 3155 3156
3104 3106 3110 3111 3114 3120 3122 3126 3129 3130 3131 3130 3130 3121 3118 3121 3123 3125 3128 3130 3132 3133 3132 3134 3135 3135 3136 3137 3137 3138 3141 3142 3143 3144 3144 3146 3147 3148 3149 3149 3148 3148 3148 3150
3096 3098 3104 3107 3111 3117 3119 3123 3125 3127 3128 3128 3126 3129 3109 3114 3116 3121 3123 3124 3124 3125 3126 3127 3128 3128 3129 3130 3131 3131 3133 3133 3135 3137 3138 3140 3141 3142 3143 3142 3142 3141 3143 3142
3094 3096 3100 3103 3108 3113 3116 3120 3123 3125 3126 3123 3119 3123 3103 3110 3112 3114 3115 3116 3117 3121 3120 3120 3122 3123 3124 3124 3124 3125 3126 3127 3128 3129 3131 3133 3135 3136 3136 3136 3135 3135 3136 3136
3084 3089 3094 3098 3102 3108 3109 3116 3122 3124 3124 3116 3114 3115 3096 3107 3111 3113 3114 3115 3116 3118 3118 3118 3119 3119 3119 3119 3120 3121 3120 3122 3123 3124 3126 3127 3129 3129 3129 3129 3129 3129 3129 3129
3078 3083 3084 3088 3094 3098 3104 3109 3111 3120 3119 3110 3111 3103 3093 3100 3103 3107 3108 3112 3112 3113 3114 3115 3115 3114 3115 3115 3115 3115 3115 3116 3118 3119 3121 3121 3123 3124 3124 3123 3121 3120 3120 3120
3072 3075 3079 3083 3089 3096 3100 3102 3105 3107 3108 3108 3101 3092 3091 3094 3097 3101 3105 3108 3109 3109 3109 3109 3109 3109 3110 3110 3110 3110 3110 3110 3112 3113 3114 3115 3116 3117 3115 3114 3113 3113 3113 3112
3066 3071 3073 3078 3083 3088 3090 3094 3100 3103 3107 3109 3093 3090 3085 3087 3093 3096 3099 3102 3103 3104 3104 3104 3104 3104 3105 3104 3104 3105 3105 3105 3107 3108 3109 3109 3109 3109 3109 3108 3107 3107 3107 3106
3061 3066 3069 3071 3071 3075 3083 3085 3091 3094 3094 3091 3095 3081 3078 3082 3086 3089 3091 3094 3096 3098 3099 3098 3097 3098 3097 3098 3098 3098 3098 3099 3101 3101 3101 3101 3102 3102 3102 3102 3103 3102 3102 3101
3053 3060 3062 3065 3067 3072 3075 3075 3078 3082 3083 3084 3083 3068 3071 3076 3081 3084 3087 3090 3091 3092 3093 3092 3091 3091 3090 3091 3092 3092 3093 3094 3094 3094 3095 3095 3097 3098 3098 3098 3098 3098 3097 3097
3043 3050 3055 3060 3062 3062 3063 3067 3073 3076 3078 3076 3081 3058 3068 3072 3075 3079 3081 3084 3085 3087 3088 3087 3087 3087 3087 3087 3086 3087 3088 3089 3089 3090 3091 3092 3092 3093 3093 3093 3092 3092 3092 3091
3038 3042 3042 3040 3045 3053 3057 3059 3063 3068 3071 3063 3062 3061 3064 3067 3070 3074 3077 3079 3081 3083 3083 3084 3084 3085 3084 3083 3083 3084 3084 3085 3085 3087 3088 3087 3086 3087 3087 3087 3086 3085 3083 3082
3030 3031 3037 3038 3044 3046 3048 3051 3056 3058 3055 3062 3042 3057 3059 3064 3067 3070 3072 3073 3075 3077 3079 3079 3081 3081 3081 3080 3080 3079 3080 3081 3081 3081 3082 3082 3082 3081 3081 3080 3079 3078 3076 3074
3022 3025 3030 3032 3035 3038 3040 3044 3045 3046 3049 3050 3051 3046 3052 3060 3062 3061 3065 3068 3070 3070 3070 3072 3073 3074 3076 3076 3075 3075 3076 3075 3075 3075 3074 3075 3073 3072 3072 3071 3071 3069 3067 3065
3018 3020 3023 3024 3026 3031 3033 3023 3035 3038 3040 3042 3041 3033 3045 3050 3054 3056 3058 3059 3061 3061 3062 3063 3064 3066 3067 3068 3068 3067 3067 3068 3067 3066 3064 3065 3063 3063 3061 3060 3060 3058 3056 3054
3014 3017 3020 3020 3023 3022 3013 3017 3025 3027 3031 3032 3032 3031 3036 3042 3045 3048 3048 3049 3051 3052 3053 3054 3055 3056 3058 3059 3060 3060 3059 3059 3058 3058 3057 3056 3055 3053 3051 3050 3049 3048 3047 3045
3008 3013 3016 3016 3016 3013 3008 3007 3016 3020 3018 3022 3021 3025 3031 3034 3037 3038 3039 3041 3044 3046 3048 3049 3050 3051 3051 3052 3054 3053 3053 3051 3051 3050 3049 3047 3046 3045 3043 3042 3041 3039 3038 3036
3003 3005 3011 3010 3010 3009 2999 3005 3010 3015 3007 3013 3016 3019 3025 3028 3028 3030 3033 3035 3038 3040 3042 3044 3044 3045 3045 3045 3046 3046 3045 3045 3044 3043 3041 3039 3038 3036 3035 3033 3032 3030 3029 3027
2994 2998 3000 3001 3002 2999 2998 3002 3005 3009 3007 3008 3012 3015 3018 3020 3023 3026 3027 3028 3031 3033 3034 3036 3036 3037 3037 3038 3038 3038 3037 3036 3035 3034 3032 3030 3028 3027 3025 3023 3021 3019 3017 3016
2984 2989 2991 2994 2996 2996 2995 2998 3001 3003 3003 3006 3010 3012 3013 3015 3016 3018 3020 3022 3024 3026 3027 3028 3029 3030 3029 3030 3030 3029 3029 3028 3027 3026 3024 3022 3019 3017 3015 3013 3010 3008 3006 3004
2979 2979 2983 2987 2986 2990 2990 2994 2996 2998 3000 3001 3005 3008 3009 3008 3009 3011 3013 3016 3017 3019 3021 3022 3022 3022 3022 3022 3021 3020 3019 3019 3017 3015 3013 3011 3009 3007 3005 3003 3001 2998 2996 2994
2969 2972 2975 2980 2980 2983 2986 2986 2989 2994 2996 2996 2998 3000 3001 3001 3003 3005 3008 3010 3012 3014 3014 3015 3016 3015 3014 3013 3012 3010 3009 3008 3006 3005 3003 3001 2999 2997 2994 2992 2990 2988 2987 2984
2963 2966 2966 2969 2972 2974 2977 2981 2985 2986 2988 2990 2991 2993 2995 2995 2997 3000 3003 3005 3007 3007 3008 3007 3006 3005 3004 3003 3001 2999 2997 2996 2994 2993 2991 2989 2987 2985 2983 2981 2979 2978 2976 2974
2953 2955 2959 2960 2967 2969 2972 2975 2976 2977 2979 2981 2984 2987 2988 2990 2992 2994 2996 2998 2998 2999 2999 2998 2996 2995 2994 2992 2990 2988 2987 2984 2983 2982 2980 2978 2976 2975 2973 2971 2970 2968 2966 2964
Wind_Speed
27 29 34 28 22 22 19 16 16 16 17 19 20 24 21 21 25 22 23 23 21 20 16 18 20 21 22 23 23 22 23 20 22 24 25 23 20 21 20 21 21 22 25 24
26 33 26 22 23 23 22 21 18 16 16 18 22 28 26 25 26 25 24 25 25 23 21 20 22 25 26 26 27 27 25 25 24 24 23 26 24 24 23 23 24 26 25 25
32 20 24 23 25 25 25 25 21 19 18 20 25 36 31 27 29 27 25 24 23 23 23 24 26 28 29 29 30 30 28 27 26 25 27 26 27 24 23 24 25 27 28 27
25 31 24 23 28 22 24 21 20 19 17 13 13 13 31 26 25 22 20 21 22 23 26 26 27 28 29 30 32 34 32 31 31 29 28 26 24 22 21 23 26 26 28 28
27 24 29 29 25 24 24 18 16 15 15 18 22 14 21 16 20 19 18 21 21 23 23 22 28 28 30 32 30 27 26 25 29 32 29 26 26 23 22 23 26 27 27 27
34 25 20 29 29 22 21 19 14 14 13 9 21 16 22 21 17 5 8 10 10 9 7 11 22 26 28 27 26 25 23 25 29 29 28 27 25 23 23 23 26 27 29 31
31 30 30 23 23 27 26 20 2 2 2 6 10 11 33 9 7 7 10 10 15 5 8 9 10 12 13 15 16 18 18 20 22 25 26 25 24 24 25 27 30 29 32 35
29 16 36 34 33 30 31 28 14 8 4 3 14 15 20 5 12 12 11 16 20 16 18 20 20 22 21 21 20 20 19 19 21 23 24 24 24 25 28 32 31 32 33 33
25 24 18 36 30 30 30 34 34 13 5 2 10 24 31 16 12 10 14 17 21 28 27 24 24 26 22 20 20 20 19 22 23 24 24 24 26 28 31 32 31 29 28 29
24 10 21 30 28 33 35 32 18 20 3 3 9 16 21 7 16 17 17 20 21 19 23 26 24 27 29 26 24 23 21 19 20 23 24 26 28 30 30 28 26 25 24 23
36 24 12 23 34 39 38 29 20 21 22 6 2 13 25 21 21 19 18 19 16 16 18 23 29 32 31 30 26 23 24 21 22 23 24 27 27 26 24 22 21 20 21 22
45 22 22 22 28 35 37 43 43 23 10 19 18 33 23 19 16 14 13 14 18 21 23 25 26 29 29 27 27 27 24 25 23 20 19 20 21 20 19 21 21 20 21 22
43 27 14 10 24 30 41 43 37 40 22 28 11 36 20 26 21 21 19 18 18 19 23 22 20 19 18 20 20 20 22 24 23 21 20 21 22 20 19 22 23 23 25 26
29 35 35 30 19 29 37 42 43 38 27 41 43 42 25 18 18 18 17 20 21 23 24 20 19 22 23 22 23 25 25 26 24 22 21 22 23 22 21 22 23 23 23 25
31 32 37 43 35 17 29 39 35 43 52 33 62 50 51 39 26 22 22 25 25 25 26 27 30 31 23 20 21 21 25 27 27 27 26 26 28 28 29 31 33 34 36 37
35 27 38 39 37 35 33 30 35 38 40 49 53 56 43 32 36 37 31 30 32 33 33 33 32 27 24 19 21 25 29 30 30 32 36 36 39 43 45 44 46 48 46 50
26 31 17 16 31 32 26 45 40 45 46 46 50 57 46 42 41 40 39 37 36 37 38 36 37 38 37 30 31 32 32 36 38 36 35 38 44 46 43 40 34 33 34 36
23 28 24 8 15 6 25 30 28 38 39 42 47 49 47 41 37 36 39 42 41 40 34 28 26 24 23 23 23 23 27 26 23 22 24 28 28 28 28 29 30 30 32 33
22 24 18 10 18 16 20 28 28 30 36 34 39 43 39 39 40 38 32 30 29 26 24 23 23 23 23 22 22 22 22 22 21 21 23 25 26 26 27 28 29 31 31 32
27 29 31 16 9 10 28 31 24 16 37 29 28 32 29 27 32 33 33 29 26 26 24 24 23 22 21 21 21 21 22 22 23 24 27 29 30 30 31 32 33 34 35 35
30 34 37 28 14 14 21 11 18 19 17 5 14 18 21 26 27 30 32 33 32 30 28 26 24 23 22 22 22 23 25 26 28 30 33 33 32 33 34 35 37 38 39 40
26 22 19 25 18 17 17 18 22 20 20 19 15 17 19 23 28 30 31 30 30 30 27 24 23 23 23 23 25 27 29 32 34 35 33 33 34 35 36 36 37 39 40 40
25 25 22 16 16 15 17 18 22 21 20 19 17 16 22 28 30 30 30 29 28 27 26 24 24 25 26 28 30 32 35 36 36 35 35 35 36 37 38 38 39 39 39 39
32 33 34 34 39 36 33 31 26 20 17 21 27 23 23 24 25 26 26 26 25 24 24 25 26 28 31 34 37 37 37 36 36 36 36 37 38 39 40 40 40 39 36 36
30 29 33 32 36 33 31 28 27 27 26 31 33 30 26 21 21 23 23 22 24 25 27 29 32 34 37 38 38 37 37 37 37 37 38 38 38 37 36 36 37 37 36 36
40 39 35 38 36 35 34 32 33 33 30 28 28 29 30 27 24 24 26 28 28 30 32 34 36 38 38 37 37 38 38 39 39 38 38 37 38 38 38 38 37 38 38 38
Wind_Direction
216 219 220 221 224 235 241 242 249 256 260 262 262 261 249 247 254 245 250 255 256 250 237 239 247 254 255 257 260 263 262 258 253 255 257 261 264 265 264 266 267 267 267 264
220 228 229 228 231 235 239 245 250 254 260 266 266 265 259 252 255 259 254 252 255 255 249 249 252 254 256 258 260 259 260 260 258 256 258 255 258 259 261 261 262 265 267 263
226 234 228 229 232 233 238 243 248 255 261 268 280 278 269 265 264 261 259 259 254 258 256 255 252 252 255 258 261 262 262 260 260 259 254 253 254 257 260 266 268 267 270 271
232 231 229 230 231 231 238 244 249 253 264 273 283 289 279 273 273 268 264 264 263 256 252 246 240 244 251 254 256 257 258 259 256 254 254 251 253 256 260 264 265 264 263 255
221 228 223 231 235 235 243 238 243 250 259 275 268 276 281 287 280 283 277 263 256 245 246 250 246 248 254 255 260 261 258 255 255 249 249 245 250 256 260 260 261 263 267 276
229 232 221 234 234 229 236 234 234 246 259 266 262 246 280 285 294 253 226 234 217 212 234 245 247 253 257 262 264 259 259 255 249 242 242 244 251 256 258 259 263 266 264 264
222 228 230 229 220 221 219 212 178 256 201 232 194 213 260 231 255 246 276 255 210 272 261 270 265 258 255 255 258 258 260 255 246 243 244 245 250 254 259 263 266 267 265 265
211 216 222 224 223 220 216 209 191 197 199 238 187 234 261 277 244 261 236 230 230 276 285 286 283 279 270 264 259 257 260 259 248 239 243 246 251 255 264 269 272 267 268 268
208 221 232 226 221 219 205 204 226 235 244 269 227 253 259 245 222 211 249 244 252 262 273 276 274 276 272 262 267 269 264 249 245 246 249 249 253 262 267 269 270 269 267 268
214 204 218 216 216 219 221 230 204 213 139 245 255 256 241 199 224 239 238 258 262 253 267 266 270 272 266 268 273 275 272 262 257 254 256 258 260 264 267 268 267 267 268 268
217 218 210 205 208 212 210 213 209 214 220 187 231 248 262 261 260 258 257 253 259 265 265 272 266 261 259 270 273 277 278 270 262 254 251 252 255 253 252 252 254 258 264 269
218 223 226 216 219 220 226 228 220 210 211 228 247 260 267 260 255 255 248 252 257 256 259 261 266 269 269 265 262 268 272 278 270 254 242 237 235 234 239 247 255 263 269 274
216 214 218 247 235 227 221 222 224 224 236 236 210 256 264 256 246 250 256 258 257 249 252 255 263 267 267 266 264 269 275 269 258 232 223 223 228 235 246 252 259 268 275 281
210 215 217 220 236 227 222 228 226 226 227 238 241 247 252 249 247 250 248 260 256 251 241 252 268 284 287 290 289 281 267 256 231 225 231 238 242 247 256 262 267 268 274 283
214 218 228 235 226 224 226 233 230 228 236 226 251 250 253 251 246 247 250 253 253 250 253 269 274 271 276 284 273 264 257 243 236 241 245 253 262 269 272 274 277 280 285 286
221 221 223 225 228 228 231 232 226 231 243 243 248 255 256 259 258 255 254 256 256 260 264 271 265 272 281 268 259 259 255 250 256 263 267 272 272 281 280 280 287 288 292 290
224 221 212 224 232 231 242 240 234 239 242 240 245 254 259 257 255 259 265 264 260 262 265 264 270 272 273 259 255 252 252 250 267 270 266 273 277 281 285 287 288 288 289 291
232 236 237 237 183 206 245 252 248 249 252 250 250 255 258 260 263 264 264 260 257 262 263 256 258 256 247 243 247 250 258 267 275 277 277 279 282 282 283 286 289 290 290 290
236 233 226 205 200 253 240 245 241 241 256 252 255 251 260 261 265 264 261 256 257 255 254 249 249 250 251 253 254 258 263 269 275 278 280 281 283 285 287 289 292 294 297 298
231 228 233 205 203 210 262 257 253 242 257 253 249 246 247 254 249 254 256 255 255 254 251 260 262 258 256 258 263 269 273 279 286 290 293 295 296 296 296 295 295 294 293 292
209 218 225 228 221 242 242 226 196 199 256 230 241 241 251 255 256 256 254 252 251 251 253 257 253 251 254 259 265 272 276 281 286 292 297 296 295 295 294 293 292 291 290 290
213 199 214 222 220 246 237 218 216 242 252 263 264 266 274 268 252 242 240 240 244 248 246 243 248 253 257 263 271 276 280 284 289 293 295 295 295 294 294 293 293 292 292 292
215 216 214 215 229 240 263 262 256 251 254 262 263 275 271 263 248 240 239 239 239 240 244 250 256 263 268 272 275 282 288 291 294 295 295 296 296 295 294 293 292 290 289 289
230 235 242 247 255 257 254 254 255 255 248 263 280 279 263 247 239 236 237 238 241 247 252 258 263 269 274 279 284 288 290 292 293 293 294 294 293 293 293 292 289 287 287 289
240 247 244 241 244 243 240 246 258 265 264 280 281 272 245 235 238 236 235 243 253 259 264 268 273 278 284 288 290 291 292 293 293 293 294 294 294 295 294 292 290 289 288 289
242 242 240 249 258 260 262 264 265 268 269 266 258 250 245 251 242 242 250 256 259 266 273 278 284 287 288 289 289 290 291 292 293 294 294 293 293 292 291 290 289 288 286 286